This is the latest recevied weather packets stored in our database for station/object W4KUS-10. If no packets are shown the sender has not sent any weather packets the latest 10 day(s).
| Time | Temp. | Humidity | Pressure | Rain* | Wind** | Luminosity | Snow |
|---|---|---|---|---|---|---|---|
| 1777986940 | 22.78° C | 62% | 1017.5 hPa | 0 mm | - | - | - |
| 1777986640 | 22.78° C | 63% | 1017.5 hPa | 0 mm | - | - | - |
| 1777986340 | 22.78° C | 65% | 1017.5 hPa | 0 mm | - | - | - |
| 1777986040 | 22.22° C | 66% | 1017.5 hPa | 0 mm | - | - | - |
| 1777985740 | 22.22° C | 68% | 1017.5 hPa | 0 mm | - | - | - |
| 1777985440 | 21.67° C | 69% | 1017.5 hPa | 0 mm | - | - | - |
| 1777985140 | 21.67° C | 71% | 1017.3 hPa | 0 mm | - | - | - |
| 1777984840 | 21.11° C | 74% | 1017.3 hPa | 0 mm | - | - | - |
| 1777984540 | 20° C | 76% | 1017.4 hPa | 0 mm | - | - | - |
| 1777984240 | 19.44° C | 80% | 1017.3 hPa | 0 mm | - | - | - |
| 1777983940 | 18.89° C | 84% | 1017.3 hPa | 0 mm | - | - | - |
| 1777983640 | 17.78° C | 88% | 1017.3 hPa | 0 mm | - | - | - |
| 1777983340 | 17.22° C | 93% | 1017.3 hPa | 0 mm | - | - | - |
| 1777983040 | 16.67° C | 95% | 1017.3 hPa | 0 mm | - | - | - |
| 1777982740 | 15.56° C | 95% | 1017.3 hPa | 0 mm | - | - | - |
| 1777982440 | 15° C | 95% | 1017.2 hPa | 0 mm | - | - | - |
| 1777982140 | 14.44° C | 95% | 1017.2 hPa | 0 mm | - | - | - |
| 1777981840 | 14.44° C | 95% | 1017.1 hPa | 0 mm | - | - | - |
| 1777981540 | 13.89° C | 95% | 1017.2 hPa | 0 mm | - | - | - |
| 1777981240 | 13.89° C | 95% | 1017.1 hPa | 0 mm | - | - | - |
| 1777980940 | 13.33° C | 95% | 1017 hPa | 0 mm | - | - | - |
| 1777980640 | 13.33° C | 95% | 1016.9 hPa | 0 mm | - | - | - |
| 1777980340 | 12.78° C | 95% | 1016.9 hPa | 0 mm | - | - | - |
| 1777980040 | 12.78° C | 95% | 1016.8 hPa | 0 mm | - | - | - |
| 1777979740 | 12.78° C | 95% | 1016.8 hPa | 0 mm | - | - | - |
* Rain latest hour (hover to see other rain measurements)
** Current wind speed in m/s (hover to see current wind gust speed)